TimeMDT,TemperatureF,Dew PointF,Humidity,Sea Level PressureIn,VisibilityMPH,Wind Direction,Wind SpeedMPH,Gust SpeedMPH,PrecipitationIn,Events,Conditions,WindDirDegrees,DateUTC
12:53 AM,48.0,46.0,93,30.13,10.0,Calm,Calm,-,N/A,,Overcast,0,2012-09-27 06:53:00
1:53 AM,48.0,46.0,93,30.12,10.0,Calm,Calm,-,N/A,,Overcast,0,2012-09-27 07:53:00
2:53 AM,48.0,45.0,89,30.13,10.0,Calm,Calm,-,N/A,,Overcast,0,2012-09-27 08:53:00
3:53 AM,48.0,45.0,89,30.13,10.0,Calm,Calm,-,N/A,,Overcast,0,2012-09-27 09:53:00
4:53 AM,46.9,45.0,93,30.15,10.0,Calm,Calm,-,N/A,,Overcast,0,2012-09-27 10:53:00
5:42 AM,46.4,44.6,93,30.25,10.0,Calm,Calm,-,N/A,,Mostly Cloudy,0,2012-09-27 11:42:00
5:53 AM,46.0,45.0,96,30.17,10.0,Calm,Calm,-,N/A,,Mostly Cloudy,0,2012-09-27 11:53:00
6:19 AM,46.4,44.6,93,30.26,1.5,Calm,Calm,-,N/A,,Overcast,0,2012-09-27 12:19:00
6:22 AM,46.4,46.4,100,30.26,0.8,Calm,Calm,-,N/A,,Overcast,0,2012-09-27 12:22:00
6:53 AM,45.0,45.0,100,30.19,0.2,Calm,Calm,-,N/A,Fog,Fog,0,2012-09-27 12:53:00
7:17 AM,44.6,44.6,100,30.26,1.5,SSW,3.5,-,N/A,,Overcast,200,2012-09-27 13:17:00
7:21 AM,44.6,44.6,100,30.26,3.0,SSW,4.6,-,N/A,,Overcast,210,2012-09-27 13:21:00
7:25 AM,44.6,44.6,100,30.26,1.8,SW,3.5,-,N/A,,Overcast,230,2012-09-27 13:25:00
7:30 AM,44.6,44.6,100,30.26,0.5,Calm,Calm,-,N/A,Fog,Fog,0,2012-09-27 13:30:00
7:53 AM,45.0,44.1,97,30.19,0.2,Calm,Calm,-,N/A,Fog,Fog,0,2012-09-27 13:53:00
8:47 AM,44.6,44.6,100,30.28,1.2,Calm,Calm,-,N/A,,Mostly Cloudy,0,2012-09-27 14:47:00
8:53 AM,45.0,45.0,100,30.22,2.5,Calm,Calm,-,N/A,,Mostly Cloudy,0,2012-09-27 14:53:00
9:01 AM,44.6,44.6,100,30.28,7.0,Calm,Calm,-,N/A,,Partly Cloudy,0,2012-09-27 15:01:00
9:53 AM,46.0,45.0,96,30.22,10.0,Calm,Calm,-,N/A,,Overcast,0,2012-09-27 15:53:00
10:53 AM,53.1,44.1,71,30.20,10.0,Calm,Calm,-,N/A,,Mostly Cloudy,0,2012-09-27 16:53:00
11:53 AM,57.9,45.0,62,30.17,10.0,Variable,3.5,-,N/A,,Clear,0,2012-09-27 17:53:00
12:53 PM,62.1,41.0,46,30.15,10.0,Calm,Calm,-,N/A,,Overcast,0,2012-09-27 18:53:00
1:53 PM,62.1,41.0,46,30.13,10.0,WNW,5.8,-,N/A,,Overcast,300,2012-09-27 19:53:00
2:53 PM,64.9,41.0,42,30.10,10.0,WNW,5.8,-,N/A,,Overcast,290,2012-09-27 20:53:00
3:53 PM,66.9,37.0,33,30.08,10.0,North,3.5,-,N/A,,Overcast,360,2012-09-27 21:53:00
4:53 PM,68.0,37.9,33,30.07,10.0,NW,5.8,-,N/A,,Mostly Cloudy,320,2012-09-27 22:53:00
5:53 PM,66.9,39.0,36,30.07,10.0,Calm,Calm,-,N/A,,Overcast,0,2012-09-27 23:53:00
6:53 PM,64.9,39.0,39,30.08,10.0,Calm,Calm,-,N/A,,Overcast,0,2012-09-28 00:53:00
7:53 PM,57.9,42.1,56,30.10,10.0,Calm,Calm,-,N/A,,Clear,0,2012-09-28 01:53:00
8:53 PM,54.0,43.0,66,30.14,10.0,SSE,6.9,-,N/A,,Clear,160,2012-09-28 02:53:00
9:53 PM,53.1,41.0,64,30.16,10.0,SSE,8.1,-,N/A,,Clear,150,2012-09-28 03:53:00
10:53 PM,50.0,41.0,71,30.15,10.0,ENE,4.6,-,N/A,,Clear,70,2012-09-28 04:53:00
11:53 PM,48.0,39.9,74,30.15,10.0,SE,3.5,-,N/A,,Clear,140,2012-09-28 05:53:00